Location: Central Falls
(41.8900°N, 71.3929°W)
Time: 12:08:29
(UTC+00:00)

A-11 Canister half - Pass Details

Date: 13 December 2023
Orbit: 1512 x 1687 km, 47.2° (Epoch: 20 February)

Event Time Altitude Azimuth Distance (km) Brightness Sun altitude
Rises 11:03:34 0° 291° (WNW) 4,874 - -11.0°
Exits shadow 11:07:51 10° 275° (W) 3,925 10.5 -10.3°
Reaches altitude 10° 11:07:56 10° 274° (W) 3,909 10.5 -10.3°
Maximum altitude 11:14:09 19° 235° (SW) 3,289 10.4 -9.2°
Drops below altitude 10° 11:20:26 10° 196° (SSW) 3,940 11.3 -8.1°
Sets 11:24:56 0° 179° (S) 4,927 12.0 -7.4°
